Time,TemperatureF,DewpointF,PressureIn,WindDirection,WindDirectionDegrees,WindSpeedMPH,WindSpeedGustMPH,Humidity,HourlyPrecipIn,Conditions,Clouds,dailyrainin,SoftwareType,DateUTC
2013-05-31 00:01:00,59.1,43.0,0.00,NW,309,4.7,10.3,55,0.00,,,0.00,WUHU216CR1000,2013-05-31 07:01:00,
2013-05-31 00:06:00,59.1,43.0,0.00,NW,309,4.7,10.3,55,0.00,,,0.00,WUHU216CR1000,2013-05-31 07:06:00,
2013-05-31 00:11:00,59.1,43.0,0.00,NW,309,4.7,10.3,55,0.00,,,0.00,WUHU216CR1000,2013-05-31 07:11:00,
2013-05-31 00:16:00,58.2,43.3,0.00,NW,324,4.4,10.3,57,0.00,,,0.00,WUHU216CR1000,2013-05-31 07:16:00,
2013-05-31 00:21:00,58.2,43.3,0.00,NW,324,4.4,10.2,57,0.00,,,0.00,WUHU216CR1000,2013-05-31 07:21:00,
2013-05-31 00:26:00,58.2,43.3,0.00,NW,324,4.4,10.2,57,0.00,,,0.00,WUHU216CR1000,2013-05-31 07:26:00,
2013-05-31 00:31:00,57.9,43.3,0.00,NNW,329,5.1,13.6,58,0.00,,,0.00,WUHU216CR1000,2013-05-31 07:31:00,
2013-05-31 00:36:00,57.9,43.3,0.00,NNW,329,5.1,13.6,58,0.00,,,0.00,WUHU216CR1000,2013-05-31 07:36:00,
2013-05-31 00:41:00,57.9,43.3,0.00,NNW,329,5.1,13.6,58,0.00,,,0.00,WUHU216CR1000,2013-05-31 07:41:00,
2013-05-31 00:46:00,57.6,43.4,0.00,NW,325,4.2,13.6,59,0.00,,,0.00,WUHU216CR1000,2013-05-31 07:46:00,
2013-05-31 00:51:00,57.6,43.4,0.00,NW,325,4.2,10.0,59,0.00,,,0.00,WUHU216CR1000,2013-05-31 07:51:00,
2013-05-31 00:56:00,57.6,43.4,0.00,NW,325,4.2,10.0,59,0.00,,,0.00,WUHU216CR1000,2013-05-31 07:56:00,
2013-05-31 01:01:00,57.7,43.4,0.00,NW,318,4.1,10.0,59,0.00,,,0.00,WUHU216CR1000,2013-05-31 08:01:00,
2013-05-31 01:06:00,57.7,43.4,0.00,NW,318,4.1,9.6,59,0.00,,,0.00,WUHU216CR1000,2013-05-31 08:06:00,
2013-05-31 01:11:00,57.7,43.4,0.00,NW,318,4.1,9.6,59,0.00,,,0.00,WUHU216CR1000,2013-05-31 08:11:00,
2013-05-31 01:16:00,57.6,43.4,0.00,NW,316,4.4,9.9,59,0.00,,,0.00,WUHU216CR1000,2013-05-31 08:16:00,
2013-05-31 01:21:00,57.6,43.4,0.00,NW,316,4.4,9.9,59,0.00,,,0.00,WUHU216CR1000,2013-05-31 08:21:00,
2013-05-31 01:26:00,57.6,43.4,0.00,NW,316,4.4,9.9,59,0.00,,,0.00,WUHU216CR1000,2013-05-31 08:26:00,
2013-05-31 01:31:00,57.3,43.4,0.00,NW,309,4.8,10.0,60,0.00,,,0.00,WUHU216CR1000,2013-05-31 08:31:00,
2013-05-31 01:36:00,57.3,43.4,0.00,NW,309,4.8,10.0,60,0.00,,,0.00,WUHU216CR1000,2013-05-31 08:36:00,
2013-05-31 01:41:00,57.3,43.4,0.00,NW,309,4.8,10.0,60,0.00,,,0.00,WUHU216CR1000,2013-05-31 08:41:00,
2013-05-31 01:46:00,57.3,43.3,0.00,NW,311,4.4,10.0,60,0.00,,,0.00,WUHU216CR1000,2013-05-31 08:46:00,
2013-05-31 01:51:00,57.3,43.3,0.00,NW,311,4.4,8.8,60,0.00,,,0.00,WUHU216CR1000,2013-05-31 08:51:00,
2013-05-31 01:56:00,57.3,43.3,0.00,NW,311,4.4,8.8,60,0.00,,,0.00,WUHU216CR1000,2013-05-31 08:56:00,
2013-05-31 02:01:00,57.0,43.3,0.00,NW,311,4.2,9.3,60,0.00,,,0.00,WUHU216CR1000,2013-05-31 09:01:00,
2013-05-31 02:06:00,57.0,43.3,0.00,NW,311,4.2,9.3,60,0.00,,,0.00,WUHU216CR1000,2013-05-31 09:06:00,
2013-05-31 02:11:00,57.0,43.3,0.00,NW,311,4.2,9.3,60,0.00,,,0.00,WUHU216CR1000,2013-05-31 09:11:00,
2013-05-31 02:16:00,56.9,43.3,0.00,NW,315,4.4,11.2,60,0.00,,,0.00,WUHU216CR1000,2013-05-31 09:16:00,
2013-05-31 02:21:00,56.9,43.3,0.00,NW,315,4.4,11.2,60,0.00,,,0.00,WUHU216CR1000,2013-05-31 09:21:00,
2013-05-31 02:26:00,56.9,43.3,0.00,NW,315,4.4,11.2,60,0.00,,,0.00,WUHU216CR1000,2013-05-31 09:26:00,
2013-05-31 02:31:00,56.9,43.3,0.00,NW,319,4.4,11.2,60,0.00,,,0.00,WUHU216CR1000,2013-05-31 09:31:00,
2013-05-31 02:36:00,56.9,43.3,0.00,NW,319,4.4,9.4,60,0.00,,,0.00,WUHU216CR1000,2013-05-31 09:36:00,
2013-05-31 02:41:00,56.9,43.3,0.00,NW,319,4.4,9.4,60,0.00,,,0.00,WUHU216CR1000,2013-05-31 09:41:00,
2013-05-31 02:46:00,56.5,43.3,0.00,NW,317,4.8,11.5,61,0.00,,,0.00,WUHU216CR1000,2013-05-31 09:46:00,
2013-05-31 02:51:00,56.5,43.3,0.00,NW,317,4.8,11.5,61,0.00,,,0.00,WUHU216CR1000,2013-05-31 09:51:00,
2013-05-31 02:56:00,56.5,43.3,0.00,NW,317,4.8,11.5,61,0.00,,,0.00,WUHU216CR1000,2013-05-31 09:56:00,
2013-05-31 03:01:00,56.3,43.3,0.00,NW,313,4.7,11.5,62,0.00,,,0.00,WUHU216CR1000,2013-05-31 10:01:00,
2013-05-31 03:06:00,56.3,43.3,0.00,NW,313,4.7,11.4,62,0.00,,,0.00,WUHU216CR1000,2013-05-31 10:06:00,
2013-05-31 03:11:00,56.3,43.3,0.00,NW,313,4.7,11.4,62,0.00,,,0.00,WUHU216CR1000,2013-05-31 10:11:00,
2013-05-31 03:16:00,56.1,43.3,0.00,NW,322,4.9,11.4,62,0.00,,,0.00,WUHU216CR1000,2013-05-31 10:16:00,
2013-05-31 03:21:00,56.1,43.3,0.00,NW,322,4.9,11.2,62,0.00,,,0.00,WUHU216CR1000,2013-05-31 10:21:00,
2013-05-31 03:26:00,56.1,43.3,0.00,NW,322,4.9,11.2,62,0.00,,,0.00,WUHU216CR1000,2013-05-31 10:26:00,
2013-05-31 03:31:00,55.9,43.3,0.00,NW,319,5.1,12.8,63,0.00,,,0.00,WUHU216CR1000,2013-05-31 10:31:00,
2013-05-31 03:36:00,55.9,43.3,0.00,NW,319,5.1,12.8,63,0.00,,,0.00,WUHU216CR1000,2013-05-31 10:36:00,
2013-05-31 03:41:00,55.9,43.3,0.00,NW,319,5.1,12.8,63,0.00,,,0.00,WUHU216CR1000,2013-05-31 10:41:00,
2013-05-31 03:46:00,55.7,43.3,0.00,NW,319,4.6,12.8,63,0.00,,,0.00,WUHU216CR1000,2013-05-31 10:46:00,
2013-05-31 03:51:00,55.7,43.3,0.00,NW,319,4.6,10.3,63,0.00,,,0.00,WUHU216CR1000,2013-05-31 10:51:00,
2013-05-31 03:56:00,55.7,43.3,0.00,NW,319,4.6,10.3,63,0.00,,,0.00,WUHU216CR1000,2013-05-31 10:56:00,
2013-05-31 04:01:00,55.6,43.3,0.00,NW,326,4.3,10.7,63,0.00,,,0.00,WUHU216CR1000,2013-05-31 11:01:00,
2013-05-31 04:06:00,55.6,43.3,0.00,NW,326,4.3,10.7,63,0.00,,,0.00,WUHU216CR1000,2013-05-31 11:06:00,
2013-05-31 04:11:00,55.6,43.3,0.00,NW,326,4.3,10.7,63,0.00,,,0.00,WUHU216CR1000,2013-05-31 11:11:00,
2013-05-31 04:16:00,55.4,43.3,0.00,NW,324,4.9,12.9,64,0.00,,,0.00,WUHU216CR1000,2013-05-31 11:16:00,
2013-05-31 04:21:00,55.4,43.3,0.00,NW,324,4.9,12.9,64,0.00,,,0.00,WUHU216CR1000,2013-05-31 11:21:00,
2013-05-31 04:26:00,55.4,43.3,0.00,NW,324,4.9,12.9,64,0.00,,,0.00,WUHU216CR1000,2013-05-31 11:26:00,
2013-05-31 04:31:00,55.2,43.2,0.00,NW,325,4.7,13.7,64,0.00,,,0.00,WUHU216CR1000,2013-05-31 11:31:00,
2013-05-31 04:36:00,55.2,43.2,0.00,NW,325,4.7,13.7,64,0.00,,,0.00,WUHU216CR1000,2013-05-31 11:36:00,
2013-05-31 04:41:00,55.2,43.2,0.00,NW,325,4.7,13.7,64,0.00,,,0.00,WUHU216CR1000,2013-05-31 11:41:00,
2013-05-31 04:46:00,55.0,43.2,0.00,NW,321,4.5,13.8,64,0.00,,,0.00,WUHU216CR1000,2013-05-31 11:46:00,
2013-05-31 04:51:00,55.0,43.2,0.00,NW,321,4.5,13.8,64,0.00,,,0.00,WUHU216CR1000,2013-05-31 11:51:00,
2013-05-31 04:56:00,55.0,43.2,0.00,NW,321,4.5,13.8,64,0.00,,,0.00,WUHU216CR1000,2013-05-31 11:56:00,
2013-05-31 05:01:00,54.8,43.1,0.00,NW,320,4.6,13.8,65,0.00,,,0.00,WUHU216CR1000,2013-05-31 12:01:00,
2013-05-31 05:06:00,54.8,43.1,0.00,NW,320,4.6,11.3,65,0.00,,,0.00,WUHU216CR1000,2013-05-31 12:06:00,
2013-05-31 05:11:00,54.8,43.1,0.00,NW,320,4.6,11.3,65,0.00,,,0.00,WUHU216CR1000,2013-05-31 12:11:00,
2013-05-31 05:16:00,54.6,43.0,0.00,NW,323,4.6,11.3,65,0.00,,,0.00,WUHU216CR1000,2013-05-31 12:16:00,
2013-05-31 05:21:00,54.6,43.0,0.00,NW,323,4.6,10.0,65,0.00,,,0.00,WUHU216CR1000,2013-05-31 12:21:00,
2013-05-31 05:26:00,54.6,43.0,0.00,NW,323,4.6,10.0,65,0.00,,,0.00,WUHU216CR1000,2013-05-31 12:26:00,
2013-05-31 05:31:00,54.2,42.9,0.00,NW,326,3.6,10.1,65,0.00,,,0.00,WUHU216CR1000,2013-05-31 12:31:00,
2013-05-31 05:36:00,54.2,42.9,0.00,NW,326,3.6,10.1,65,0.00,,,0.00,WUHU216CR1000,2013-05-31 12:36:00,
2013-05-31 05:41:00,54.2,42.9,0.00,NW,326,3.6,10.1,65,0.00,,,0.00,WUHU216CR1000,2013-05-31 12:41:00,
2013-05-31 05:46:00,53.9,42.8,0.00,NW,318,4.8,11.4,66,0.00,,,0.00,WUHU216CR1000,2013-05-31 12:46:00,
2013-05-31 05:51:00,53.9,42.8,0.00,NW,318,4.8,11.4,66,0.00,,,0.00,WUHU216CR1000,2013-05-31 12:51:00,
2013-05-31 05:56:00,53.9,42.8,0.00,NW,318,4.8,11.4,66,0.00,,,0.00,WUHU216CR1000,2013-05-31 12:56:00,
2013-05-31 06:01:00,53.7,42.7,0.00,NW,306,5.1,13.9,66,0.00,,,0.00,WUHU216CR1000,2013-05-31 13:01:00,
2013-05-31 06:06:00,53.7,42.7,0.00,NW,306,5.1,13.9,66,0.00,,,0.00,WUHU216CR1000,2013-05-31 13:06:00,
2013-05-31 06:11:00,53.7,42.7,0.00,NW,306,5.1,13.9,66,0.00,,,0.00,WUHU216CR1000,2013-05-31 13:11:00,
2013-05-31 06:16:00,53.5,42.6,0.00,WNW,303,5.1,13.9,66,0.00,,,0.00,WUHU216CR1000,2013-05-31 13:16:00,
2013-05-31 06:21:00,53.5,42.6,0.00,WNW,303,5.1,11.0,66,0.00,,,0.00,WUHU216CR1000,2013-05-31 13:21:00,
2013-05-31 06:26:00,53.5,42.6,0.00,WNW,303,5.1,11.0,66,0.00,,,0.00,WUHU216CR1000,2013-05-31 13:26:00,
2013-05-31 06:31:00,53.7,42.6,0.00,WNW,298,5.8,11.2,66,0.00,,,0.00,WUHU216CR1000,2013-05-31 13:31:00,
2013-05-31 06:36:00,53.7,42.6,0.00,WNW,298,5.8,11.2,66,0.00,,,0.00,WUHU216CR1000,2013-05-31 13:36:00,
2013-05-31 06:41:00,53.7,42.6,0.00,WNW,298,5.8,11.2,66,0.00,,,0.00,WUHU216CR1000,2013-05-31 13:41:00,
2013-05-31 06:46:00,55.0,42.8,0.00,WNW,300,5.5,11.7,63,0.00,,,0.00,WUHU216CR1000,2013-05-31 13:46:00,
2013-05-31 06:51:00,55.0,42.8,0.00,WNW,300,5.5,11.7,63,0.00,,,0.00,WUHU216CR1000,2013-05-31 13:51:00,
2013-05-31 06:56:00,55.0,42.8,0.00,WNW,300,5.5,11.7,63,0.00,,,0.00,WUHU216CR1000,2013-05-31 13:56:00,
2013-05-31 07:01:00,55.9,42.8,0.00,NW,305,5.2,13.4,61,0.00,,,0.00,WUHU216CR1000,2013-05-31 14:01:00,
2013-05-31 07:06:00,55.9,42.8,0.00,NW,305,5.2,13.4,61,0.00,,,0.00,WUHU216CR1000,2013-05-31 14:06:00,
2013-05-31 07:11:00,55.9,42.8,0.00,NW,305,5.2,13.4,61,0.00,,,0.00,WUHU216CR1000,2013-05-31 14:11:00,
2013-05-31 07:16:00,56.8,42.8,0.00,NW,304,5.5,13.4,59,0.00,,,0.00,WUHU216CR1000,2013-05-31 14:16:00,
2013-05-31 07:21:00,56.8,42.8,0.00,NW,304,5.5,12.4,59,0.00,,,0.00,WUHU216CR1000,2013-05-31 14:21:00,
2013-05-31 07:26:00,56.8,42.8,0.00,NW,304,5.5,12.4,59,0.00,,,0.00,WUHU216CR1000,2013-05-31 14:26:00,
2013-05-31 07:31:00,57.8,42.8,0.00,NW,312,4.6,12.4,57,0.00,,,0.00,WUHU216CR1000,2013-05-31 14:31:00,
2013-05-31 07:36:00,57.8,42.8,0.00,NW,312,4.6,12.1,57,0.00,,,0.00,WUHU216CR1000,2013-05-31 14:36:00,
2013-05-31 07:41:00,57.8,42.8,0.00,NW,312,4.6,12.1,57,0.00,,,0.00,WUHU216CR1000,2013-05-31 14:41:00,
2013-05-31 07:46:00,58.8,43.2,0.00,NW,312,5.2,12.1,56,0.00,,,0.00,WUHU216CR1000,2013-05-31 14:46:00,
2013-05-31 07:51:00,58.8,43.2,0.00,NW,312,5.2,11.0,56,0.00,,,0.00,WUHU216CR1000,2013-05-31 14:51:00,
2013-05-31 07:56:00,58.8,43.2,0.00,NW,312,5.2,11.0,56,0.00,,,0.00,WUHU216CR1000,2013-05-31 14:56:00,
2013-05-31 08:01:00,60.0,43.3,0.00,WNW,300,6.6,14.9,54,0.00,,,0.00,WUHU216CR1000,2013-05-31 15:01:00,
2013-05-31 08:06:00,60.0,43.3,0.00,WNW,300,6.6,14.9,54,0.00,,,0.00,WUHU216CR1000,2013-05-31 15:06:00,
2013-05-31 08:11:00,60.0,43.3,0.00,WNW,300,6.6,14.9,54,0.00,,,0.00,WUHU216CR1000,2013-05-31 15:11:00,
2013-05-31 08:16:00,61.2,43.6,0.00,WNW,297,6.9,14.9,52,0.00,,,0.00,WUHU216CR1000,2013-05-31 15:16:00,
2013-05-31 08:21:00,61.2,43.6,0.00,WNW,297,6.9,12.6,52,0.00,,,0.00,WUHU216CR1000,2013-05-31 15:21:00,
2013-05-31 08:26:00,61.2,43.6,0.00,WNW,297,6.9,12.6,52,0.00,,,0.00,WUHU216CR1000,2013-05-31 15:26:00,
2013-05-31 08:31:00,62.6,44.1,0.00,WNW,296,6.7,12.8,51,0.00,,,0.00,WUHU216CR1000,2013-05-31 15:31:00,
2013-05-31 08:36:00,62.6,44.1,0.00,WNW,296,6.7,12.8,51,0.00,,,0.00,WUHU216CR1000,2013-05-31 15:36:00,
2013-05-31 08:41:00,62.6,44.1,0.00,WNW,296,6.7,12.8,51,0.00,,,0.00,WUHU216CR1000,2013-05-31 15:41:00,
2013-05-31 08:46:00,63.8,44.3,0.00,NW,307,6.3,15.3,49,0.00,,,0.00,WUHU216CR1000,2013-05-31 15:46:00,
2013-05-31 08:51:00,63.8,44.3,0.00,NW,307,6.3,15.3,49,0.00,,,0.00,WUHU216CR1000,2013-05-31 15:51:00,
2013-05-31 08:56:00,63.8,44.3,0.00,NW,307,6.3,15.3,49,0.00,,,0.00,WUHU216CR1000,2013-05-31 15:56:00,
2013-05-31 09:01:00,64.5,44.2,0.00,NW,310,6.3,15.3,48,0.00,,,0.00,WUHU216CR1000,2013-05-31 16:01:00,
2013-05-31 09:06:00,64.5,44.2,0.00,NW,310,6.3,14.0,48,0.00,,,0.00,WUHU216CR1000,2013-05-31 16:06:00,
2013-05-31 09:11:00,64.5,44.2,0.00,NW,310,6.3,14.0,48,0.00,,,0.00,WUHU216CR1000,2013-05-31 16:11:00,
2013-05-31 09:16:00,65.7,44.7,0.00,NW,314,5.8,14.0,47,0.00,,,0.00,WUHU216CR1000,2013-05-31 16:16:00,
2013-05-31 09:21:00,65.7,44.7,0.00,NW,314,5.8,11.9,47,0.00,,,0.00,WUHU216CR1000,2013-05-31 16:21:00,
2013-05-31 09:26:00,65.7,44.7,0.00,NW,314,5.8,11.9,47,0.00,,,0.00,WUHU216CR1000,2013-05-31 16:26:00,
2013-05-31 09:31:00,67.1,44.4,0.00,NW,313,7.0,12.9,44,0.00,,,0.00,WUHU216CR1000,2013-05-31 16:31:00,
2013-05-31 09:36:00,67.1,44.4,0.00,NW,313,7.0,12.9,44,0.00,,,0.00,WUHU216CR1000,2013-05-31 16:36:00,
2013-05-31 09:41:00,67.1,44.4,0.00,NW,313,7.0,12.9,44,0.00,,,0.00,WUHU216CR1000,2013-05-31 16:41:00,
2013-05-31 09:46:00,68.4,44.6,0.00,NW,314,6.6,14.8,42,0.00,,,0.00,WUHU216CR1000,2013-05-31 16:46:00,
2013-05-31 09:51:00,68.4,44.6,0.00,NW,314,6.6,14.8,42,0.00,,,0.00,WUHU216CR1000,2013-05-31 16:51:00,
2013-05-31 09:56:00,68.4,44.6,0.00,NW,314,6.6,14.8,42,0.00,,,0.00,WUHU216CR1000,2013-05-31 16:56:00,
2013-05-31 10:01:00,69.6,45.0,0.00,NW,323,5.7,15.9,41,0.00,,,0.00,WUHU216CR1000,2013-05-31 17:01:00,
2013-05-31 10:06:00,69.6,45.0,0.00,NW,323,5.7,15.9,41,0.00,,,0.00,WUHU216CR1000,2013-05-31 17:06:00,
2013-05-31 10:11:00,69.6,45.0,0.00,NW,323,5.7,15.9,41,0.00,,,0.00,WUHU216CR1000,2013-05-31 17:11:00,
2013-05-31 10:16:00,72.0,45.9,0.00,NW,318,4.8,15.9,39,0.00,,,0.00,WUHU216CR1000,2013-05-31 17:16:00,
2013-05-31 10:21:00,72.0,45.9,0.00,NW,318,4.8,13.2,39,0.00,,,0.00,WUHU216CR1000,2013-05-31 17:21:00,
2013-05-31 10:26:00,72.0,45.9,0.00,NW,318,4.8,13.2,39,0.00,,,0.00,WUHU216CR1000,2013-05-31 17:26:00,
2013-05-31 10:31:00,73.9,46.3,0.00,NW,319,4.4,13.2,37,0.00,,,0.00,WUHU216CR1000,2013-05-31 17:31:00,
2013-05-31 10:36:00,73.9,46.3,0.00,NW,319,4.4,11.2,37,0.00,,,0.00,WUHU216CR1000,2013-05-31 17:36:00,
2013-05-31 10:41:00,73.9,46.3,0.00,NW,319,4.4,11.2,37,0.00,,,0.00,WUHU216CR1000,2013-05-31 17:41:00,
2013-05-31 10:46:00,75.4,46.4,0.00,NW,315,4.8,11.2,36,0.00,,,0.00,WUHU216CR1000,2013-05-31 17:46:00,
2013-05-31 10:51:00,75.4,46.4,0.00,NW,315,4.8,11.0,36,0.00,,,0.00,WUHU216CR1000,2013-05-31 17:51:00,
2013-05-31 10:56:00,75.4,46.4,0.00,NW,315,4.8,11.0,36,0.00,,,0.00,WUHU216CR1000,2013-05-31 17:56:00,
2013-05-31 11:01:00,76.3,47.1,0.00,NW,320,4.6,11.0,36,0.00,,,0.00,WUHU216CR1000,2013-05-31 18:01:00,
2013-05-31 11:06:00,76.3,47.1,0.00,NW,320,4.6,11.0,36,0.00,,,0.00,WUHU216CR1000,2013-05-31 18:06:00,
2013-05-31 11:11:00,76.3,47.1,0.00,NW,320,4.6,11.0,36,0.00,,,0.00,WUHU216CR1000,2013-05-31 18:11:00,
2013-05-31 11:16:00,77.1,47.1,0.00,NNW,332,4.7,11.0,35,0.00,,,0.00,WUHU216CR1000,2013-05-31 18:16:00,
2013-05-31 11:21:00,77.1,47.1,0.00,NNW,332,4.7,10.7,35,0.00,,,0.00,WUHU216CR1000,2013-05-31 18:21:00,
2013-05-31 11:26:00,77.1,47.1,0.00,NNW,332,4.7,10.7,35,0.00,,,0.00,WUHU216CR1000,2013-05-31 18:26:00,
2013-05-31 11:31:00,77.6,47.4,0.00,NNW,339,4.3,11.0,35,0.00,,,0.00,WUHU216CR1000,2013-05-31 18:31:00,
2013-05-31 11:36:00,77.6,47.4,0.00,NNW,339,4.3,11.0,35,0.00,,,0.00,WUHU216CR1000,2013-05-31 18:36:00,
2013-05-31 11:41:00,77.6,47.4,0.00,NNW,339,4.3,11.0,35,0.00,,,0.00,WUHU216CR1000,2013-05-31 18:41:00,
2013-05-31 11:46:00,79.3,47.5,0.00,North,350,3.8,11.0,33,0.00,,,0.00,WUHU216CR1000,2013-05-31 18:46:00,
2013-05-31 11:51:00,79.3,47.5,0.00,North,350,3.8,8.1,33,0.00,,,0.00,WUHU216CR1000,2013-05-31 18:51:00,
2013-05-31 11:56:00,79.3,47.5,0.00,North,350,3.8,8.1,33,0.00,,,0.00,WUHU216CR1000,2013-05-31 18:56:00,
2013-05-31 12:01:00,80.1,47.1,0.00,North,11,4.1,8.6,31,0.00,,,0.00,WUHU216CR1000,2013-05-31 19:01:00,
2013-05-31 12:06:00,80.1,47.1,0.00,North,11,4.1,8.6,31,0.00,,,0.00,WUHU216CR1000,2013-05-31 19:06:00,
2013-05-31 12:11:00,80.1,47.1,0.00,North,11,4.1,8.6,31,0.00,,,0.00,WUHU216CR1000,2013-05-31 19:11:00,
2013-05-31 12:16:00,82.0,47.9,0.00,North,5,3.8,9.8,30,0.00,,,0.00,WUHU216CR1000,2013-05-31 19:16:00,
2013-05-31 12:21:00,82.0,47.9,0.00,North,5,3.8,9.8,30,0.00,,,0.00,WUHU216CR1000,2013-05-31 19:21:00,
2013-05-31 12:26:00,82.0,47.9,0.00,North,5,3.8,9.8,30,0.00,,,0.00,WUHU216CR1000,2013-05-31 19:26:00,
2013-05-31 12:31:00,83.2,48.0,0.00,North,355,3.5,9.8,29,0.00,,,0.00,WUHU216CR1000,2013-05-31 19:31:00,
2013-05-31 12:36:00,83.2,48.0,0.00,North,355,3.5,9.0,29,0.00,,,0.00,WUHU216CR1000,2013-05-31 19:36:00,
2013-05-31 12:41:00,83.2,48.0,0.00,North,355,3.5,9.0,29,0.00,,,0.00,WUHU216CR1000,2013-05-31 19:41:00,
2013-05-31 12:46:00,84.4,48.1,0.00,North,352,3.6,9.0,28,0.00,,,0.00,WUHU216CR1000,2013-05-31 19:46:00,
2013-05-31 12:51:00,84.4,48.1,0.00,North,352,3.6,7.9,28,0.00,,,0.00,WUHU216CR1000,2013-05-31 19:51:00,
2013-05-31 12:56:00,84.4,48.1,0.00,North,352,3.6,7.9,28,0.00,,,0.00,WUHU216CR1000,2013-05-31 19:56:00,
2013-05-31 13:01:00,86.3,47.9,0.00,NNW,335,3.7,10.3,27,0.00,,,0.00,WUHU216CR1000,2013-05-31 20:01:00,
2013-05-31 13:06:00,86.3,47.9,0.00,NNW,335,3.7,10.3,27,0.00,,,0.00,WUHU216CR1000,2013-05-31 20:06:00,
2013-05-31 13:11:00,86.3,47.9,0.00,NNW,335,3.7,10.3,27,0.00,,,0.00,WUHU216CR1000,2013-05-31 20:11:00,
2013-05-31 13:16:00,87.4,48.1,0.00,NNW,343,4.3,10.4,26,0.00,,,0.00,WUHU216CR1000,2013-05-31 20:16:00,
2013-05-31 13:21:00,87.4,48.1,0.00,NNW,343,4.3,10.4,26,0.00,,,0.00,WUHU216CR1000,2013-05-31 20:21:00,
2013-05-31 13:26:00,87.4,48.1,0.00,NNW,343,4.3,10.4,26,0.00,,,0.00,WUHU216CR1000,2013-05-31 20:26:00,
2013-05-31 13:31:00,87.1,47.9,0.00,North,349,4.8,11.6,26,0.00,,,0.00,WUHU216CR1000,2013-05-31 20:31:00,
2013-05-31 13:36:00,87.1,47.9,0.00,North,349,4.8,11.6,26,0.00,,,0.00,WUHU216CR1000,2013-05-31 20:36:00,
2013-05-31 13:41:00,87.1,47.9,0.00,North,349,4.8,11.6,26,0.00,,,0.00,WUHU216CR1000,2013-05-31 20:41:00,
2013-05-31 13:46:00,87.8,47.0,0.00,NNW,338,5.3,11.6,24,0.00,,,0.00,WUHU216CR1000,2013-05-31 20:46:00,
2013-05-31 13:51:00,87.8,47.0,0.00,NNW,338,5.3,11.3,24,0.00,,,0.00,WUHU216CR1000,2013-05-31 20:51:00,
2013-05-31 13:56:00,87.8,47.0,0.00,NNW,338,5.3,11.3,24,0.00,,,0.00,WUHU216CR1000,2013-05-31 20:56:00,
2013-05-31 14:01:00,88.7,45.8,0.00,NNW,343,4.8,12.3,23,0.00,,,0.00,WUHU216CR1000,2013-05-31 21:01:00,
2013-05-31 14:06:00,88.7,45.8,0.00,NNW,343,4.8,12.3,23,0.00,,,0.00,WUHU216CR1000,2013-05-31 21:06:00,
2013-05-31 14:11:00,88.7,45.8,0.00,NNW,343,4.8,12.3,23,0.00,,,0.00,WUHU216CR1000,2013-05-31 21:11:00,
2013-05-31 14:16:00,90.1,45.8,0.00,NNW,327,4.6,12.5,22,0.00,,,0.00,WUHU216CR1000,2013-05-31 21:16:00,
2013-05-31 14:21:00,90.1,45.8,0.00,NNW,327,4.6,12.5,22,0.00,,,0.00,WUHU216CR1000,2013-05-31 21:21:00,
2013-05-31 14:26:00,90.1,45.8,0.00,NNW,327,4.6,12.5,22,0.00,,,0.00,WUHU216CR1000,2013-05-31 21:26:00,
2013-05-31 14:31:00,89.7,45.0,0.00,NNW,344,5.1,12.5,21,0.00,,,0.00,WUHU216CR1000,2013-05-31 21:31:00,
2013-05-31 14:36:00,89.7,45.0,0.00,NNW,344,5.1,11.5,21,0.00,,,0.00,WUHU216CR1000,2013-05-31 21:36:00,
2013-05-31 14:41:00,89.7,45.0,0.00,NNW,344,5.1,11.5,21,0.00,,,0.00,WUHU216CR1000,2013-05-31 21:41:00,
2013-05-31 14:46:00,91.3,45.4,0.00,NW,322,4.3,11.5,21,0.00,,,0.00,WUHU216CR1000,2013-05-31 21:46:00,
2013-05-31 14:51:00,91.3,45.4,0.00,NW,322,4.3,10.4,21,0.00,,,0.00,WUHU216CR1000,2013-05-31 21:51:00,
2013-05-31 14:56:00,91.3,45.4,0.00,NW,322,4.3,10.4,21,0.00,,,0.00,WUHU216CR1000,2013-05-31 21:56:00,
2013-05-31 15:01:00,91.9,45.6,0.00,NW,323,5.2,12.1,20,0.00,,,0.00,WUHU216CR1000,2013-05-31 22:01:00,
2013-05-31 15:06:00,91.9,45.6,0.00,NW,323,5.2,12.1,20,0.00,,,0.00,WUHU216CR1000,2013-05-31 22:06:00,
2013-05-31 15:11:00,91.9,45.6,0.00,NW,323,5.2,12.1,20,0.00,,,0.00,WUHU216CR1000,2013-05-31 22:11:00,
2013-05-31 15:17:00,91.5,45.6,0.00,NNW,336,4.7,12.8,21,0.00,,,0.00,WUHU216CR1000,2013-05-31 22:17:00,
2013-05-31 15:21:00,91.5,45.6,0.00,NNW,336,4.7,12.8,21,0.00,,,0.00,WUHU216CR1000,2013-05-31 22:21:00,
2013-05-31 15:27:00,91.5,45.6,0.00,NNW,336,4.7,12.8,21,0.00,,,0.00,WUHU216CR1000,2013-05-31 22:27:00,
2013-05-31 15:31:00,92.5,46.5,0.00,NW,326,4.4,12.8,21,0.00,,,0.00,WUHU216CR1000,2013-05-31 22:31:00,
2013-05-31 15:37:00,92.5,46.5,0.00,NW,326,4.4,11.6,21,0.00,,,0.00,WUHU216CR1000,2013-05-31 22:37:00,
2013-05-31 15:41:00,92.5,46.5,0.00,NW,326,4.4,11.6,21,0.00,,,0.00,WUHU216CR1000,2013-05-31 22:41:00,
2013-05-31 15:46:00,93.0,47.7,0.00,WNW,282,7.4,13.4,21,0.00,,,0.00,WUHU216CR1000,2013-05-31 22:46:00,
2013-05-31 15:51:00,93.0,47.7,0.00,WNW,282,7.4,13.4,21,0.00,,,0.00,WUHU216CR1000,2013-05-31 22:51:00,
2013-05-31 15:56:00,93.0,47.7,0.00,WNW,282,7.4,13.4,21,0.00,,,0.00,WUHU216CR1000,2013-05-31 22:56:00,
2013-05-31 16:01:00,93.8,48.5,0.00,NW,307,4.4,13.4,21,0.00,,,0.00,WUHU216CR1000,2013-05-31 23:01:00,
2013-05-31 16:06:00,93.8,48.5,0.00,NW,307,4.4,9.5,21,0.00,,,0.00,WUHU216CR1000,2013-05-31 23:06:00,
2013-05-31 16:11:00,93.8,48.5,0.00,NW,307,4.4,9.5,21,0.00,,,0.00,WUHU216CR1000,2013-05-31 23:11:00,
2013-05-31 16:16:00,93.7,49.2,0.00,NW,309,4.7,11.7,22,0.00,,,0.00,WUHU216CR1000,2013-05-31 23:16:00,
2013-05-31 16:21:00,93.7,49.2,0.00,NW,309,4.7,11.7,22,0.00,,,0.00,WUHU216CR1000,2013-05-31 23:21:00,
2013-05-31 16:26:00,93.7,49.2,0.00,NW,309,4.7,11.7,22,0.00,,,0.00,WUHU216CR1000,2013-05-31 23:26:00,
2013-05-31 16:31:00,94.1,49.4,0.00,WNW,303,5.9,14.9,22,0.00,,,0.00,WUHU216CR1000,2013-05-31 23:31:00,
2013-05-31 16:36:00,94.1,49.4,0.00,WNW,303,5.9,14.9,22,0.00,,,0.00,WUHU216CR1000,2013-05-31 23:36:00,
2013-05-31 16:41:00,94.1,49.4,0.00,WNW,303,5.9,14.9,22,0.00,,,0.00,WUHU216CR1000,2013-05-31 23:41:00,
2013-05-31 16:46:00,93.6,49.1,0.00,NW,311,6.4,14.9,22,0.00,,,0.00,WUHU216CR1000,2013-05-31 23:46:00,
2013-05-31 16:51:00,93.6,49.1,0.00,NW,311,6.4,12.9,22,0.00,,,0.00,WUHU216CR1000,2013-05-31 23:51:00,
2013-05-31 16:56:00,93.6,49.1,0.00,NW,311,6.4,12.9,22,0.00,,,0.00,WUHU216CR1000,2013-05-31 23:56:00,
2013-05-31 17:01:00,93.8,52.1,0.00,WNW,296,6.4,14.9,24,0.00,,,0.00,WUHU216CR1000,2013-06-01 00:01:00,
2013-05-31 17:06:00,93.8,52.1,0.00,WNW,296,6.4,14.9,24,0.00,,,0.00,WUHU216CR1000,2013-06-01 00:06:00,
2013-05-31 17:11:00,93.8,52.1,0.00,WNW,296,6.4,14.9,24,0.00,,,0.00,WUHU216CR1000,2013-06-01 00:11:00,
2013-05-31 17:16:00,92.8,52.1,0.00,WNW,292,7.7,14.9,25,0.00,,,0.00,WUHU216CR1000,2013-06-01 00:16:00,
2013-05-31 17:21:00,92.8,52.1,0.00,WNW,292,7.7,14.3,25,0.00,,,0.00,WUHU216CR1000,2013-06-01 00:21:00,
2013-05-31 17:26:00,92.8,52.1,0.00,WNW,292,7.7,14.3,25,0.00,,,0.00,WUHU216CR1000,2013-06-01 00:26:00,
2013-05-31 17:31:00,91.8,51.5,0.00,WNW,299,7.2,19.2,26,0.00,,,0.00,WUHU216CR1000,2013-06-01 00:31:00,
2013-05-31 17:36:00,91.8,51.5,0.00,WNW,299,7.2,19.2,26,0.00,,,0.00,WUHU216CR1000,2013-06-01 00:36:00,
2013-05-31 17:41:00,91.8,51.5,0.00,WNW,299,7.2,19.2,26,0.00,,,0.00,WUHU216CR1000,2013-06-01 00:41:00,
2013-05-31 17:46:00,90.8,50.7,0.00,NW,316,5.6,19.2,26,0.00,,,0.00,WUHU216CR1000,2013-06-01 00:46:00,
2013-05-31 17:51:00,90.8,50.7,0.00,NW,316,5.6,14.4,26,0.00,,,0.00,WUHU216CR1000,2013-06-01 00:51:00,
2013-05-31 17:56:00,90.8,50.7,0.00,NW,316,5.6,14.4,26,0.00,,,0.00,WUHU216CR1000,2013-06-01 00:56:00,
2013-05-31 18:01:00,89.4,50.1,0.00,NW,313,5.7,15.0,26,0.00,,,0.00,WUHU216CR1000,2013-06-01 01:01:00,
2013-05-31 18:06:00,89.4,50.1,0.00,NW,313,5.7,15.0,26,0.00,,,0.00,WUHU216CR1000,2013-06-01 01:06:00,
2013-05-31 18:11:00,89.4,50.1,0.00,NW,313,5.7,15.0,26,0.00,,,0.00,WUHU216CR1000,2013-06-01 01:11:00,
2013-05-31 18:16:00,89.1,50.5,0.00,WNW,298,6.5,15.0,27,0.00,,,0.00,WUHU216CR1000,2013-06-01 01:16:00,
2013-05-31 18:21:00,89.1,50.5,0.00,WNW,298,6.5,14.3,27,0.00,,,0.00,WUHU216CR1000,2013-06-01 01:21:00,
2013-05-31 18:26:00,89.1,50.5,0.00,WNW,298,6.5,14.3,27,0.00,,,0.00,WUHU216CR1000,2013-06-01 01:26:00,
2013-05-31 18:31:00,88.1,50.2,0.00,WNW,288,8.2,15.2,27,0.00,,,0.00,WUHU216CR1000,2013-06-01 01:31:00,
2013-05-31 18:36:00,88.1,50.2,0.00,WNW,288,8.2,15.2,27,0.00,,,0.00,WUHU216CR1000,2013-06-01 01:36:00,
2013-05-31 18:41:00,88.1,50.2,0.00,WNW,288,8.2,15.2,27,0.00,,,0.00,WUHU216CR1000,2013-06-01 01:41:00,
2013-05-31 18:46:00,86.9,49.6,0.00,WNW,289,7.4,15.6,28,0.00,,,0.00,WUHU216CR1000,2013-06-01 01:46:00,
2013-05-31 18:51:00,86.9,49.6,0.00,WNW,289,7.4,15.6,28,0.00,,,0.00,WUHU216CR1000,2013-06-01 01:51:00,
2013-05-31 18:56:00,86.9,49.6,0.00,WNW,289,7.4,15.6,28,0.00,,,0.00,WUHU216CR1000,2013-06-01 01:56:00,
2013-05-31 19:01:00,85.8,48.8,0.00,West,277,8.5,15.6,28,0.00,,,0.00,WUHU216CR1000,2013-06-01 02:01:00,
2013-05-31 19:06:00,85.8,48.8,0.00,West,277,8.5,14.6,28,0.00,,,0.00,WUHU216CR1000,2013-06-01 02:06:00,
2013-05-31 19:11:00,85.8,48.8,0.00,West,277,8.5,14.6,28,0.00,,,0.00,WUHU216CR1000,2013-06-01 02:11:00,
2013-05-31 19:16:00,84.4,48.0,0.00,West,271,7.9,14.6,28,0.00,,,0.00,WUHU216CR1000,2013-06-01 02:16:00,
2013-05-31 19:21:00,84.4,48.0,0.00,West,271,7.9,13.0,28,0.00,,,0.00,WUHU216CR1000,2013-06-01 02:21:00,
2013-05-31 19:26:00,84.4,48.0,0.00,West,271,7.9,13.0,28,0.00,,,0.00,WUHU216CR1000,2013-06-01 02:26:00,
2013-05-31 19:31:00,83.0,47.0,0.00,West,270,8.0,13.0,28,0.00,,,0.00,WUHU216CR1000,2013-06-01 02:31:00,
2013-05-31 19:36:00,83.0,47.0,0.00,West,270,8.0,13.0,28,0.00,,,0.00,WUHU216CR1000,2013-06-01 02:36:00,
2013-05-31 19:41:00,83.0,47.0,0.00,West,270,8.0,13.0,28,0.00,,,0.00,WUHU216CR1000,2013-06-01 02:41:00,
2013-05-31 19:46:00,81.7,46.3,0.00,West,266,9.1,14.1,29,0.00,,,0.00,WUHU216CR1000,2013-06-01 02:46:00,
2013-05-31 19:51:00,81.7,46.3,0.00,West,266,9.1,14.1,29,0.00,,,0.00,WUHU216CR1000,2013-06-01 02:51:00,
2013-05-31 19:56:00,81.7,46.3,0.00,West,266,9.1,14.1,29,0.00,,,0.00,WUHU216CR1000,2013-06-01 02:56:00,
2013-05-31 20:01:00,80.3,45.9,0.00,West,272,6.7,14.1,30,0.00,,,0.00,WUHU216CR1000,2013-06-01 03:01:00,
2013-05-31 20:06:00,80.3,45.9,0.00,West,272,6.7,11.5,30,0.00,,,0.00,WUHU216CR1000,2013-06-01 03:06:00,
2013-05-31 20:11:00,80.3,45.9,0.00,West,272,6.7,11.5,30,0.00,,,0.00,WUHU216CR1000,2013-06-01 03:11:00,
2013-05-31 20:16:00,79.2,45.6,0.00,WNW,290,5.6,12.5,31,0.00,,,0.00,WUHU216CR1000,2013-06-01 03:16:00,
2013-05-31 20:21:00,79.2,45.6,0.00,WNW,290,5.6,12.5,31,0.00,,,0.00,WUHU216CR1000,2013-06-01 03:21:00,
2013-05-31 20:26:00,79.2,45.6,0.00,WNW,290,5.6,12.5,31,0.00,,,0.00,WUHU216CR1000,2013-06-01 03:26:00,
2013-05-31 20:31:00,77.7,45.2,0.00,WNW,303,4.2,12.5,32,0.00,,,0.00,WUHU216CR1000,2013-06-01 03:31:00,
2013-05-31 20:36:00,77.7,45.2,0.00,WNW,303,4.2,9.2,32,0.00,,,0.00,WUHU216CR1000,2013-06-01 03:36:00,
2013-05-31 20:41:00,77.7,45.2,0.00,WNW,303,4.2,9.2,32,0.00,,,0.00,WUHU216CR1000,2013-06-01 03:41:00,
2013-05-31 20:46:00,76.4,44.9,0.00,NW,307,3.4,9.2,33,0.00,,,0.00,WUHU216CR1000,2013-06-01 03:46:00,
2013-05-31 20:51:00,76.4,44.9,0.00,NW,307,3.4,7.0,33,0.00,,,0.00,WUHU216CR1000,2013-06-01 03:51:00,
2013-05-31 20:56:00,76.4,44.9,0.00,NW,307,3.4,7.0,33,0.00,,,0.00,WUHU216CR1000,2013-06-01 03:56:00,
2013-05-31 21:01:00,76.4,44.9,0.00,NW,307,3.4,7.0,33,0.00,,,0.00,WUHU216CR1000,2013-06-01 04:01:00,
2013-05-31 21:06:00,75.3,44.5,0.00,NW,312,2.8,7.1,33,0.00,,,0.00,WUHU216CR1000,2013-06-01 04:06:00,
2013-05-31 21:11:00,75.3,44.5,0.00,NW,312,2.8,7.1,33,0.00,,,0.00,WUHU216CR1000,2013-06-01 04:11:00,
2013-05-31 21:16:00,74.2,44.3,0.00,NW,309,2.8,7.1,34,0.00,,,0.00,WUHU216CR1000,2013-06-01 04:16:00,
2013-05-31 21:21:00,74.2,44.3,0.00,NW,309,2.8,6.7,34,0.00,,,0.00,WUHU216CR1000,2013-06-01 04:21:00,
2013-05-31 21:26:00,74.2,44.3,0.00,NW,309,2.8,6.7,34,0.00,,,0.00,WUHU216CR1000,2013-06-01 04:26:00,
2013-05-31 21:31:00,73.3,44.1,0.00,WNW,298,4.1,11.3,35,0.00,,,0.00,WUHU216CR1000,2013-06-01 04:31:00,
2013-05-31 21:36:00,73.3,44.1,0.00,WNW,298,4.1,11.3,35,0.00,,,0.00,WUHU216CR1000,2013-06-01 04:36:00,
2013-05-31 21:41:00,73.3,44.1,0.00,WNW,298,4.1,11.3,35,0.00,,,0.00,WUHU216CR1000,2013-06-01 04:41:00,
2013-05-31 21:46:00,72.1,43.8,0.00,NW,315,3.3,11.3,36,0.00,,,0.00,WUHU216CR1000,2013-06-01 04:46:00,
2013-05-31 21:51:00,72.1,43.8,0.00,NW,315,3.3,9.0,36,0.00,,,0.00,WUHU216CR1000,2013-06-01 04:51:00,
2013-05-31 21:56:00,72.1,43.8,0.00,NW,315,3.3,9.0,36,0.00,,,0.00,WUHU216CR1000,2013-06-01 04:56:00,
2013-05-31 22:01:00,71.2,43.5,0.00,NNW,329,3.8,9.0,37,0.00,,,0.00,WUHU216CR1000,2013-06-01 05:01:00,
2013-05-31 22:06:00,71.2,43.5,0.00,NNW,329,3.8,8.6,37,0.00,,,0.00,WUHU216CR1000,2013-06-01 05:06:00,
2013-05-31 22:11:00,71.2,43.5,0.00,NNW,329,3.8,8.6,37,0.00,,,0.00,WUHU216CR1000,2013-06-01 05:11:00,
2013-05-31 22:16:00,70.2,43.2,0.00,NW,324,4.0,8.6,38,0.00,,,0.00,WUHU216CR1000,2013-06-01 05:16:00,
2013-05-31 22:21:00,70.2,43.2,0.00,NW,324,4.0,8.4,38,0.00,,,0.00,WUHU216CR1000,2013-06-01 05:21:00,
2013-05-31 22:26:00,70.2,43.2,0.00,NW,324,4.0,8.4,38,0.00,,,0.00,WUHU216CR1000,2013-06-01 05:26:00,
2013-05-31 22:31:00,69.0,43.0,0.00,NNW,327,4.0,8.6,39,0.00,,,0.00,WUHU216CR1000,2013-06-01 05:31:00,
2013-05-31 22:36:00,69.0,43.0,0.00,NNW,327,4.0,8.6,39,0.00,,,0.00,WUHU216CR1000,2013-06-01 05:36:00,
2013-05-31 22:41:00,69.0,43.0,0.00,NNW,327,4.0,8.6,39,0.00,,,0.00,WUHU216CR1000,2013-06-01 05:41:00,
2013-05-31 22:46:00,68.3,42.8,0.00,NNW,328,4.1,8.8,40,0.00,,,0.00,WUHU216CR1000,2013-06-01 05:46:00,
2013-05-31 22:51:00,68.3,42.8,0.00,NNW,328,4.1,8.8,40,0.00,,,0.00,WUHU216CR1000,2013-06-01 05:51:00,
2013-05-31 22:56:00,68.3,42.8,0.00,NNW,328,4.1,8.8,40,0.00,,,0.00,WUHU216CR1000,2013-06-01 05:56:00,
2013-05-31 23:01:00,67.7,42.9,0.00,NW,320,4.4,10.4,41,0.00,,,0.00,WUHU216CR1000,2013-06-01 06:01:00,
2013-05-31 23:06:00,67.7,42.9,0.00,NW,320,4.4,10.4,41,0.00,,,0.00,WUHU216CR1000,2013-06-01 06:06:00,
2013-05-31 23:11:00,67.7,42.9,0.00,NW,320,4.4,10.4,41,0.00,,,0.00,WUHU216CR1000,2013-06-01 06:11:00,
2013-05-31 23:16:00,67.3,42.8,0.00,NNW,327,4.9,11.2,41,0.00,,,0.00,WUHU216CR1000,2013-06-01 06:16:00,
2013-05-31 23:21:00,67.3,42.8,0.00,NNW,327,4.9,11.2,41,0.00,,,0.00,WUHU216CR1000,2013-06-01 06:21:00,
2013-05-31 23:26:00,67.3,42.8,0.00,NNW,327,4.9,11.2,41,0.00,,,0.00,WUHU216CR1000,2013-06-01 06:26:00,
2013-05-31 23:31:00,66.9,42.8,0.00,NW,324,5.0,12.3,42,0.00,,,0.00,WUHU216CR1000,2013-06-01 06:31:00,
2013-05-31 23:36:00,66.9,42.8,0.00,NW,324,5.0,12.3,42,0.00,,,0.00,WUHU216CR1000,2013-06-01 06:36:00,
2013-05-31 23:41:00,66.9,42.8,0.00,NW,324,5.0,12.3,42,0.00,,,0.00,WUHU216CR1000,2013-06-01 06:41:00,
2013-05-31 23:46:00,66.6,43.0,0.00,NW,319,5.2,12.3,42,0.00,,,0.00,WUHU216CR1000,2013-06-01 06:46:00,
2013-05-31 23:51:00,66.6,43.0,0.00,NW,319,5.2,11.5,42,0.00,,,0.00,WUHU216CR1000,2013-06-01 06:51:00,
2013-05-31 23:56:00,66.6,43.0,0.00,NW,319,5.2,11.5,42,0.00,,,0.00,WUHU216CR1000,2013-06-01 06:56:00,